QPF
0.04 0.06 0.06 0.05 0.05 0.06 0.05 0.07 0.05 0.02 0.03 0.05 0.05 0.03 0.01 0.01 0.01 0.01 0.01 0.01 0.01 0.02 0.02 0.03 0.04 0.05 0.09 0.12 0.12 0.11 0.09 0.08 0.09 0.06 0.04 0.03 0.03 0.03 0.02 0.02 0.01 0.00 0.00 0.00
0.05 0.05 0.03 0.03 0.04 0.07 0.07 0.07 0.05 0.03 0.04 0.07 0.06 0.03 0.01 0.01 0.01 0.01 0.01 0.01 0.01 0.01 0.01 0.02 0.04 0.05 0.06 0.09 0.11 0.11 0.11 0.09 0.08 0.06 0.03 0.02 0.02 0.03 0.02 0.02 0.01 0.00 0.00 0.00
0.04 0.03 0.02 0.04 0.06 0.09 0.08 0.06 0.04 0.04 0.05 0.06 0.07 0.04 0.01 0.00 0.00 0.00 0.00 0.01 0.01 0.00 0.01 0.01 0.03 0.05 0.05 0.06 0.08 0.09 0.09 0.09 0.09 0.07 0.05 0.04 0.03 0.03 0.04 0.03 0.02 0.01 0.00 0.00
0.05 0.03 0.03 0.05 0.07 0.08 0.08 0.03 0.03 0.05 0.09 0.10 0.07 0.06 0.01 0.00 0.00 0.00 0.00 0.00 0.00 0.00 0.00 0.01 0.01 0.03 0.04 0.04 0.05 0.07 0.09 0.08 0.08 0.10 0.07 0.05 0.03 0.03 0.03 0.02 0.01 0.01 0.00 0.00
0.05 0.04 0.03 0.04 0.04 0.05 0.06 0.05 0.05 0.06 0.09 0.10 0.07 0.07 0.02 0.00 0.00 0.00 0.00 0.00 0.00 0.00 0.00 0.00 0.00 0.02 0.02 0.03 0.04 0.06 0.08 0.10 0.09 0.11 0.10 0.05 0.04 0.03 0.02 0.02 0.01 0.00 0.00 0.00
0.02 0.03 0.04 0.04 0.02 0.03 0.06 0.08 0.07 0.06 0.11 0.11 0.04 0.03 0.01 0.01 0.01 0.00 0.00 0.00 0.00 0.00 0.00 0.00 0.00 0.00 0.01 0.02 0.03 0.04 0.06 0.09 0.10 0.09 0.09 0.07 0.05 0.05 0.04 0.03 0.01 0.01 0.00 0.00
0.01 0.01 0.02 0.02 0.03 0.03 0.08 0.11 0.10 0.09 0.09 0.06 0.01 0.01 0.01 0.02 0.01 0.00 0.00 0.00 0.00 0.00 0.00 0.00 0.00 0.00 0.01 0.01 0.03 0.04 0.04 0.05 0.08 0.09 0.08 0.06 0.06 0.06 0.05 0.04 0.02 0.01 0.00 0.00
0.01 0.01 0.01 0.01 0.03 0.04 0.06 0.11 0.11 0.09 0.06 0.02 0.01 0.01 0.02 0.01 0.01 0.01 0.00 0.00 0.00 0.00 0.00 0.00 0.00 0.00 0.00 0.01 0.01 0.03 0.04 0.04 0.05 0.07 0.07 0.06 0.07 0.08 0.07 0.05 0.04 0.02 0.01 0.00
0.03 0.02 0.01 0.01 0.02 0.05 0.06 0.08 0.08 0.09 0.06 0.03 0.02 0.02 0.03 0.01 0.01 0.01 0.00 0.00 0.00 0.00 0.00 0.00 0.00 0.00 0.00 0.01 0.01 0.01 0.02 0.03 0.04 0.04 0.06 0.06 0.07 0.07 0.07 0.06 0.04 0.04 0.02 0.01
0.03 0.03 0.01 0.01 0.02 0.03 0.05 0.06 0.09 0.09 0.07 0.04 0.02 0.03 0.05 0.03 0.02 0.01 0.00 0.00 0.00 0.00 0.00 0.00 0.00 0.00 0.00 0.00 0.01 0.01 0.01 0.02 0.03 0.04 0.04 0.05 0.06 0.06 0.07 0.06 0.05 0.03 0.03 0.02
0.02 0.04 0.02 0.01 0.03 0.04 0.04 0.07 0.09 0.08 0.06 0.06 0.04 0.05 0.08 0.06 0.04 0.02 0.01 0.00 0.00 0.00 0.00 0.01 0.00 0.00 0.00 0.00 0.00 0.00 0.01 0.01 0.03 0.04 0.04 0.04 0.05 0.07 0.09 0.07 0.05 0.03 0.02 0.02
0.01 0.03 0.02 0.01 0.01 0.02 0.03 0.06 0.07 0.08 0.05 0.04 0.05 0.05 0.06 0.06 0.04 0.03 0.01 0.01 0.01 0.00 0.00 0.01 0.00 0.00 0.00 0.00 0.00 0.00 0.00 0.01 0.01 0.03 0.04 0.04 0.04 0.05 0.09 0.11 0.08 0.05 0.03 0.02
0.04 0.06 0.04 0.01 0.01 0.01 0.02 0.02 0.04 0.06 0.05 0.04 0.03 0.04 0.03 0.02 0.03 0.02 0.02 0.01 0.01 0.01 0.00 0.00 0.00 0.00 0.00 0.00 0.00 0.00 0.00 0.00 0.01 0.03 0.04 0.05 0.04 0.04 0.05 0.07 0.10 0.08 0.05 0.03
0.10 0.09 0.04 0.02 0.01 0.01 0.01 0.01 0.02 0.05 0.06 0.03 0.01 0.01 0.01 0.01 0.02 0.02 0.02 0.02 0.01 0.01 0.01 0.01 0.00 0.00 0.00 0.00 0.00 0.00 0.00 0.00 0.01 0.03 0.04 0.05 0.03 0.02 0.03 0.04 0.06 0.07 0.06 0.04
0.06 0.05 0.01 0.01 0.01 0.01 0.02 0.01 0.02 0.03 0.03 0.03 0.01 0.01 0.02 0.02 0.03 0.04 0.03 0.02 0.02 0.01 0.01 0.01 0.01 0.00 0.00 0.00 0.00 0.00 0.00 0.00 0.01 0.03 0.04 0.03 0.03 0.02 0.03 0.03 0.04 0.05 0.05 0.04
0.03 0.03 0.01 0.00 0.01 0.01 0.01 0.01 0.01 0.01 0.01 0.02 0.02 0.02 0.02 0.03 0.03 0.03 0.03 0.03 0.03 0.02 0.02 0.01 0.01 0.01 0.01 0.00 0.00 0.00 0.00 0.00 0.01 0.01 0.02 0.03 0.04 0.04 0.03 0.03 0.03 0.04 0.04 0.04
0.03 0.03 0.02 0.01 0.00 0.01 0.01 0.01 0.01 0.01 0.02 0.02 0.03 0.02 0.02 0.03 0.03 0.03 0.03 0.04 0.03 0.02 0.02 0.02 0.01 0.01 0.01 0.00 0.00 0.00 0.00 0.00 0.01 0.01 0.02 0.03 0.04 0.04 0.04 0.03 0.03 0.03 0.04 0.04
0.03 0.03 0.04 0.02 0.01 0.02 0.01 0.00 0.00 0.01 0.02 0.02 0.02 0.01 0.02 0.02 0.02 0.04 0.05 0.05 0.04 0.03 0.03 0.02 0.01 0.01 0.01 0.01 0.00 0.00 0.00 0.01 0.01 0.01 0.02 0.03 0.03 0.04 0.04 0.05 0.04 0.04 0.04 0.04
0.02 0.04 0.05 0.03 0.02 0.01 0.00 0.00 0.01 0.02 0.02 0.02 0.01 0.01 0.01 0.01 0.01 0.03 0.04 0.04 0.04 0.04 0.04 0.03 0.02 0.01 0.01 0.01 0.00 0.00 0.00 0.01 0.01 0.01 0.01 0.02 0.02 0.02 0.04 0.04 0.04 0.04 0.04 0.04
0.01 0.03 0.05 0.04 0.03 0.01 0.00 0.00 0.00 0.01 0.02 0.01 0.01 0.01 0.01 0.01 0.02 0.02 0.03 0.03 0.03 0.03 0.04 0.03 0.03 0.02 0.02 0.01 0.00 0.00 0.01 0.01 0.01 0.01 0.01 0.01 0.02 0.02 0.02 0.03 0.04 0.04 0.04 0.04
0.01 0.03 0.03 0.02 0.02 0.00 0.00 0.00 0.00 0.01 0.01 0.01 0.01 0.01 0.01 0.02 0.02 0.02 0.03 0.04 0.03 0.03 0.03 0.03 0.03 0.03 0.02 0.01 0.01 0.01 0.01 0.01 0.01 0.01 0.01 0.02 0.02 0.02 0.02 0.03 0.04 0.04 0.04 0.04
0.01 0.01 0.01 0.01 0.02 0.01 0.00 0.00 0.01 0.01 0.01 0.01 0.01 0.01 0.01 0.01 0.01 0.01 0.02 0.03 0.03 0.03 0.03 0.04 0.03 0.03 0.03 0.02 0.01 0.01 0.01 0.01 0.01 0.01 0.02 0.02 0.02 0.03 0.03 0.02 0.02 0.03 0.03 0.04
0.00 0.00 0.01 0.01 0.00 0.00 0.00 0.01 0.00 0.01 0.01 0.01 0.01 0.01 0.01 0.01 0.01 0.01 0.02 0.03 0.03 0.03 0.03 0.04 0.04 0.04 0.04 0.03 0.02 0.01 0.01 0.02 0.02 0.02 0.02 0.03 0.03 0.03 0.03 0.02 0.02 0.02 0.03 0.03
0.00 0.00 0.00 0.01 0.00 0.00 0.00 0.00 0.00 0.01 0.01 0.01 0.01 0.01 0.01 0.01 0.01 0.02 0.03 0.03 0.03 0.03 0.03 0.04 0.03 0.04 0.04 0.04 0.03 0.02 0.02 0.02 0.02 0.02 0.02 0.02 0.03 0.03 0.03 0.03 0.02 0.02 0.02 0.02
0.00 0.00 0.00 0.00 0.00 0.00 0.00 0.00 0.00 0.01 0.01 0.00 0.00 0.00 0.00 0.01 0.01 0.02 0.02 0.02 0.02 0.02 0.03 0.03 0.03 0.04 0.05 0.05 0.04 0.03 0.02 0.02 0.02 0.02 0.02 0.02 0.03 0.04 0.04 0.03 0.03 0.02 0.02 0.02
0.00 0.00 0.01 0.00 0.00 0.00 0.00 0.00 0.00 0.01 0.01 0.00 0.00 0.00 0.00 0.01 0.01 0.02 0.02 0.01 0.02 0.02 0.02 0.02 0.03 0.03 0.05 0.05 0.05 0.05 0.04 0.02 0.02 0.02 0.02 0.03 0.03 0.04 0.04 0.04 0.04 0.04 0.03 0.03
MSLP
1015.01 1014.89 1014.68 1014.33 1013.84 1013.18 1012.34 1011.34 1010.17 1008.89 1007.52 1006.13 1004.77 1003.50 1002.38 1001.44 1000.72 1000.20 999.87 999.67 999.56 999.48 999.38 999.24 999.05 998.85 998.69 998.63 998.74 999.08 999.69 1000.56 1001.66 1002.92 1004.28 1005.65 1006.96 1008.16 1009.22 1010.15 1010.98 1011.74 1012.46 1013.17
1015.30 1015.05 1014.67 1014.16 1013.50 1012.70 1011.75 1010.66 1009.44 1008.12 1006.73 1005.32 1003.92 1002.61 1001.42 1000.42 999.64 999.07 998.71 998.52 998.44 998.42 998.41 998.38 998.30 998.20 998.14 998.16 998.33 998.71 999.34 1000.22 1001.31 1002.57 1003.92 1005.27 1006.58 1007.78 1008.86 1009.82 1010.67 1011.46 1012.21 1012.95
1015.61 1015.22 1014.68 1014.02 1013.22 1012.30 1011.27 1010.14 1008.92 1007.61 1006.23 1004.82 1003.41 1002.05 1000.79 999.70 998.81 998.14 997.69 997.42 997.31 997.29 997.32 997.35 997.36 997.38 997.42 997.55 997.82 998.27 998.96 999.86 1000.95 1002.20 1003.52 1004.85 1006.13 1007.32 1008.40 1009.38 1010.26 1011.08 1011.87 1012.64
1016.02 1015.48 1014.80 1013.99 1013.08 1012.08 1011.02 1009.89 1008.69 1007.42 1006.09 1004.71 1003.30 1001.91 1000.58 999.38 998.36 997.54 996.93 996.53 996.31 996.22 996.22 996.26 996.34 996.44 996.60 996.84 997.22 997.77 998.52 999.47 1000.57 1001.80 1003.09 1004.39 1005.63 1006.80 1007.87 1008.85 1009.76 1010.62 1011.44 1012.25
1016.56 1015.88 1015.07 1014.14 1013.15 1012.11 1011.04 1009.93 1008.79 1007.59 1006.33 1005.00 1003.61 1002.20 1000.81 999.50 998.33 997.33 996.54 995.96 995.57 995.35 995.26 995.27 995.35 995.50 995.74 996.09 996.58 997.23 998.05 999.04 1000.17 1001.39 1002.65 1003.90 1005.11 1006.24 1007.30 1008.28 1009.20 1010.09 1010.95 1011.79
1017.26 1016.46 1015.53 1014.52 1013.46 1012.40 1011.34 1010.28 1009.21 1008.09 1006.90 1005.63 1004.27 1002.86 1001.42 1000.02 998.71 997.55 996.56 995.78 995.20 994.80 994.57 994.48 994.51 994.66 994.94 995.35 995.92 996.65 997.54 998.58 999.73 1000.94 1002.18 1003.40 1004.57 1005.67 1006.70 1007.67 1008.61 1009.51 1010.41 1011.28
1018.06 1017.16 1016.15 1015.08 1013.99 1012.93 1011.90 1010.89 1009.88 1008.83 1007.71 1006.50 1005.19 1003.78 1002.33 1000.86 999.45 998.15 996.99 996.02 995.23 994.64 994.23 993.99 993.92 994.01 994.26 994.69 995.29 996.07 997.01 998.08 999.25 1000.46 1001.69 1002.88 1004.02 1005.09 1006.10 1007.07 1008.01 1008.93 1009.85 1010.76
1018.89 1017.93 1016.87 1015.78 1014.69 1013.64 1012.63 1011.67 1010.71 1009.72 1008.66 1007.50 1006.23 1004.85 1003.40 1001.91 1000.44 999.04 997.76 996.62 995.66 994.87 994.26 993.85 993.62 993.59 993.76 994.13 994.71 995.49 996.44 997.53 998.71 999.93 1001.15 1002.34 1003.46 1004.52 1005.52 1006.48 1007.43 1008.36 1009.30 1010.23
1019.61 1018.63 1017.58 1016.50 1015.45 1014.43 1013.47 1012.55 1011.62 1010.67 1009.64 1008.51 1007.28 1005.94 1004.52 1003.05 1001.57 1000.14 998.78 997.53 996.41 995.45 994.65 994.03 993.62 993.41 993.44 993.70 994.21 994.94 995.87 996.95 998.14 999.36 1000.59 1001.78 1002.91 1003.97 1004.97 1005.93 1006.88 1007.82 1008.77 1009.72
1020.11 1019.17 1018.18 1017.17 1016.19 1015.24 1014.32 1013.43 1012.53 1011.58 1010.57 1009.46 1008.25 1006.95 1005.58 1004.16 1002.73 1001.31 999.93 998.63 997.41 996.30 995.32 994.51 993.88 993.47 993.31 993.42 993.80 994.43 995.31 996.36 997.53 998.77 1000.01 1001.21 1002.36 1003.43 1004.45 1005.42 1006.37 1007.32 1008.27 1009.22
1020.31 1019.47 1018.59 1017.71 1016.83 1015.97 1015.12 1014.26 1013.37 1012.42 1011.39 1010.29 1009.10 1007.84 1006.53 1005.19 1003.83 1002.48 1001.14 999.83 998.55 997.34 996.21 995.20 994.36 993.73 993.36 993.28 993.49 994.01 994.79 995.79 996.94 998.17 999.42 1000.65 1001.82 1002.92 1003.96 1004.94 1005.89 1006.84 1007.78 1008.71
1020.21 1019.52 1018.81 1018.08 1017.35 1016.60 1015.83 1015.01 1014.12 1013.16 1012.11 1011.00 1009.82 1008.60 1007.36 1006.10 1004.84 1003.58 1002.31 1001.03 999.74 998.46 997.20 996.03 995.00 994.15 993.57 993.28 993.32 993.68 994.35 995.28 996.38 997.60 998.86 1000.11 1001.31 1002.44 1003.49 1004.48 1005.44 1006.37 1007.29 1008.21
1019.90 1019.39 1018.87 1018.32 1017.75 1017.13 1016.44 1015.65 1014.77 1013.79 1012.72 1011.59 1010.42 1009.24 1008.06 1006.90 1005.74 1004.58 1003.40 1002.17 1000.90 999.57 998.23 996.93 995.72 994.69 993.89 993.41 993.26 993.47 994.02 994.85 995.90 997.09 998.35 999.61 1000.83 1001.97 1003.04 1004.04 1004.99 1005.91 1006.81 1007.70
1019.51 1019.19 1018.85 1018.49 1018.06 1017.56 1016.94 1016.20 1015.32 1014.32 1013.23 1012.08 1010.92 1009.77 1008.65 1007.57 1006.52 1005.46 1004.37 1003.21 1001.96 1000.62 999.22 997.81 996.47 995.27 994.30 993.63 993.32 993.37 993.79 994.53 995.51 996.65 997.89 999.15 1000.37 1001.53 1002.60 1003.61 1004.55 1005.46 1006.34 1007.20
1019.18 1019.03 1018.85 1018.63 1018.33 1017.91 1017.35 1016.62 1015.74 1014.73 1013.61 1012.46 1011.30 1010.18 1009.12 1008.12 1007.16 1006.20 1005.19 1004.09 1002.87 1001.54 1000.10 998.62 997.17 995.84 994.73 993.91 993.45 993.37 993.67 994.30 995.20 996.29 997.49 998.72 999.94 1001.09 1002.17 1003.17 1004.11 1005.01 1005.88 1006.73
1019.05 1019.01 1018.94 1018.81 1018.57 1018.19 1017.65 1016.92 1016.02 1014.99 1013.86 1012.70 1011.56 1010.48 1009.47 1008.54 1007.65 1006.76 1005.82 1004.77 1003.59 1002.26 1000.81 999.28 997.76 996.35 995.13 994.20 993.62 993.41 993.60 994.14 994.95 995.97 997.12 998.33 999.52 1000.67 1001.75 1002.75 1003.70 1004.60 1005.47 1006.33
1019.17 1019.18 1019.14 1019.02 1018.78 1018.38 1017.81 1017.05 1016.12 1015.07 1013.94 1012.79 1011.67 1010.62 1009.66 1008.79 1007.96 1007.13 1006.24 1005.23 1004.08 1002.76 1001.30 999.75 998.20 996.73 995.45 994.44 993.77 993.48 993.57 994.01 994.74 995.70 996.79 997.95 999.13 1000.26 1001.34 1002.35 1003.31 1004.23 1005.12 1006.00
1019.51 1019.49 1019.41 1019.24 1018.92 1018.45 1017.81 1016.99 1016.02 1014.94 1013.81 1012.68 1011.60 1010.59 1009.69 1008.86 1008.08 1007.29 1006.44 1005.46 1004.32 1003.02 1001.56 1000.01 998.44 996.96 995.64 994.59 993.87 993.51 993.53 993.90 994.56 995.44 996.48 997.60 998.75 999.88 1000.96 1002.00 1002.98 1003.94 1004.87 1005.79
1019.95 1019.86 1019.68 1019.38 1018.94 1018.36 1017.61 1016.72 1015.70 1014.61 1013.49 1012.39 1011.35 1010.40 1009.55 1008.77 1008.02 1007.26 1006.42 1005.46 1004.33 1003.04 1001.59 1000.06 998.50 997.02 995.71 994.65 993.90 993.50 993.48 993.78 994.38 995.21 996.20 997.29 998.42 999.55 1000.65 1001.71 1002.74 1003.74 1004.72 1005.69
1020.34 1020.13 1019.81 1019.37 1018.79 1018.07 1017.22 1016.26 1015.20 1014.11 1013.01 1011.95 1010.97 1010.07 1009.27 1008.53 1007.81 1007.06 1006.23 1005.28 1004.16 1002.88 1001.46 999.94 998.42 996.97 995.69 994.64 993.89 993.48 993.42 993.69 994.25 995.03 995.98 997.05 998.16 999.29 1000.42 1001.52 1002.59 1003.65 1004.69 1005.72
1020.51 1020.18 1019.72 1019.13 1018.42 1017.58 1016.65 1015.63 1014.56 1013.48 1012.42 1011.42 1010.50 1009.66 1008.90 1008.20 1007.50 1006.76 1005.93 1004.97 1003.86 1002.60 1001.21 999.74 998.26 996.87 995.63 994.62 993.89 993.49 993.42 993.67 994.19 994.95 995.87 996.91 998.02 999.16 1000.31 1001.45 1002.57 1003.68 1004.78 1005.87
1020.34 1019.91 1019.34 1018.64 1017.82 1016.92 1015.93 1014.90 1013.85 1012.81 1011.81 1010.87 1010.01 1009.23 1008.52 1007.84 1007.15 1006.41 1005.58 1004.63 1003.53 1002.29 1000.93 999.52 998.11 996.78 995.61 994.65 993.97 993.59 993.53 993.77 994.27 995.00 995.90 996.93 998.03 999.18 1000.35 1001.52 1002.69 1003.84 1004.99 1006.13
1019.80 1019.29 1018.64 1017.89 1017.03 1016.11 1015.14 1014.14 1013.14 1012.16 1011.23 1010.37 1009.58 1008.85 1008.16 1007.50 1006.82 1006.08 1005.24 1004.29 1003.21 1002.01 1000.71 999.36 998.03 996.78 995.69 994.81 994.18 993.84 993.80 994.04 994.53 995.24 996.13 997.14 998.23 999.38 1000.57 1001.76 1002.95 1004.15 1005.33 1006.51
1018.88 1018.34 1017.68 1016.92 1016.10 1015.22 1014.31 1013.39 1012.48 1011.60 1010.75 1009.97 1009.23 1008.54 1007.88 1007.22 1006.54 1005.79 1004.96 1004.02 1002.96 1001.80 1000.57 999.31 998.07 996.92 995.92 995.12 994.56 994.27 994.26 994.51 995.00 995.70 996.57 997.56 998.65 999.79 1000.98 1002.18 1003.39 1004.60 1005.81 1007.01
1017.68 1017.14 1016.51 1015.82 1015.08 1014.30 1013.51 1012.71 1011.92 1011.14 1010.40 1009.68 1009.00 1008.34 1007.69 1007.02 1006.33 1005.58 1004.74 1003.82 1002.80 1001.70 1000.55 999.38 998.25 997.21 996.31 995.60 995.12 994.88 994.91 995.18 995.68 996.37 997.22 998.20 999.27 1000.40 1001.58 1002.78 1003.99 1005.21 1006.42 1007.63
1016.29 1015.79 1015.25 1014.66 1014.05 1013.42 1012.78 1012.13 1011.48 1010.82 1010.17 1009.52 1008.87 1008.23 1007.58 1006.91 1006.21 1005.44 1004.61 1003.71 1002.74 1001.71 1000.64 999.58 998.56 997.63 996.84 996.23 995.83 995.66 995.73 996.02 996.53 997.22 998.07 999.03 1000.08 1001.20 1002.37 1003.55 1004.76 1005.97 1007.18 1008.40
Thickness
5456 5445 5443 5446 5444 5446 5447 5447 5453 5467 5478 5478 5484 5497 5514 5524 5529 5538 5551 5564 5576 5590 5604 5613 5622 5630 5637 5643 5648 5653 5656 5658 5659 5659 5660 5659 5659 5659 5659 5659 5659 5658 5657 5655
5441 5438 5447 5447 5445 5442 5439 5440 5448 5461 5472 5473 5477 5490 5507 5518 5526 5537 5547 5559 5571 5584 5595 5605 5614 5623 5631 5638 5643 5649 5652 5656 5658 5660 5660 5659 5657 5656 5655 5655 5654 5654 5654 5653
5434 5441 5446 5442 5438 5435 5437 5437 5444 5451 5460 5466 5465 5479 5500 5516 5525 5535 5546 5557 5568 5579 5589 5600 5608 5618 5626 5633 5640 5645 5650 5653 5655 5656 5654 5652 5650 5649 5649 5651 5652 5652 5651 5650
5431 5437 5437 5434 5433 5431 5435 5445 5447 5449 5446 5453 5459 5464 5492 5507 5520 5532 5541 5552 5563 5574 5584 5594 5603 5611 5621 5630 5637 5642 5646 5649 5651 5652 5653 5652 5653 5654 5656 5654 5652 5649 5648 5648
5422 5429 5428 5428 5432 5432 5432 5440 5442 5444 5441 5442 5452 5452 5480 5499 5511 5527 5540 5549 5560 5569 5580 5589 5598 5608 5617 5625 5631 5636 5640 5644 5647 5649 5652 5652 5653 5653 5652 5649 5647 5646 5645 5645
5423 5427 5424 5426 5433 5433 5433 5435 5439 5438 5436 5437 5453 5450 5468 5488 5506 5521 5533 5544 5553 5562 5573 5583 5592 5601 5609 5617 5624 5630 5635 5640 5644 5646 5649 5651 5652 5651 5649 5648 5646 5644 5643 5642
5413 5421 5425 5427 5425 5429 5425 5419 5417 5416 5421 5432 5456 5457 5470 5491 5502 5514 5525 5536 5545 5553 5562 5572 5582 5592 5602 5610 5618 5625 5630 5635 5640 5643 5646 5650 5651 5650 5650 5649 5647 5645 5643 5642
5388 5401 5417 5421 5418 5416 5417 5414 5412 5413 5419 5436 5453 5459 5474 5486 5497 5507 5516 5525 5536 5545 5554 5564 5575 5586 5596 5605 5613 5621 5626 5632 5637 5640 5644 5648 5649 5649 5649 5647 5647 5646 5646 5644
5380 5394 5416 5420 5421 5416 5412 5413 5416 5415 5417 5424 5443 5455 5471 5484 5492 5499 5506 5515 5525 5536 5546 5557 5568 5579 5590 5599 5609 5617 5624 5629 5634 5639 5642 5644 5646 5647 5648 5647 5646 5644 5643 5641
5380 5384 5403 5411 5417 5416 5412 5411 5408 5409 5409 5423 5439 5447 5458 5469 5479 5489 5496 5504 5515 5527 5538 5550 5562 5573 5583 5594 5604 5613 5621 5627 5632 5636 5639 5642 5644 5646 5645 5644 5643 5642 5641 5639
5379 5374 5387 5395 5400 5401 5404 5404 5401 5400 5403 5413 5425 5450 5462 5462 5469 5476 5484 5494 5505 5516 5528 5541 5554 5566 5577 5587 5597 5606 5615 5622 5627 5632 5637 5639 5641 5642 5642 5641 5641 5640 5638 5636
5376 5369 5371 5383 5397 5399 5399 5395 5393 5390 5393 5400 5414 5441 5459 5458 5461 5467 5473 5483 5494 5505 5518 5531 5544 5557 5568 5579 5590 5600 5610 5619 5626 5631 5634 5636 5638 5639 5639 5639 5639 5637 5635 5634
5376 5368 5363 5377 5383 5384 5383 5389 5389 5386 5387 5394 5405 5435 5454 5452 5455 5460 5465 5473 5483 5496 5510 5522 5534 5546 5559 5572 5583 5594 5605 5615 5622 5627 5630 5632 5634 5635 5637 5637 5636 5634 5632 5631
5384 5368 5360 5361 5368 5369 5372 5382 5386 5382 5381 5389 5405 5423 5439 5443 5446 5452 5457 5465 5475 5487 5500 5513 5524 5536 5549 5563 5576 5588 5598 5609 5617 5622 5625 5628 5632 5634 5635 5634 5633 5632 5630 5627
5370 5363 5359 5363 5372 5373 5376 5384 5387 5384 5385 5386 5404 5414 5426 5431 5435 5441 5447 5457 5468 5479 5491 5503 5514 5526 5539 5554 5568 5581 5592 5602 5610 5617 5621 5626 5629 5630 5629 5628 5628 5628 5626 5625
5360 5358 5358 5364 5375 5374 5378 5388 5390 5392 5394 5395 5403 5412 5424 5426 5430 5436 5441 5449 5459 5470 5482 5494 5506 5518 5531 5545 5560 5573 5584 5594 5603 5611 5618 5622 5623 5624 5624 5623 5623 5622 5622 5620
5354 5349 5351 5357 5364 5368 5373 5386 5390 5392 5395 5395 5398 5409 5417 5420 5426 5430 5435 5443 5451 5462 5475 5486 5498 5510 5523 5538 5552 5566 5578 5587 5597 5605 5612 5615 5617 5619 5619 5619 5618 5617 5617 5616
5353 5347 5345 5349 5349 5348 5376 5387 5388 5389 5393 5394 5398 5405 5410 5415 5422 5427 5431 5435 5446 5457 5468 5480 5492 5504 5518 5532 5546 5560 5571 5581 5591 5599 5605 5609 5612 5613 5614 5613 5613 5613 5613 5611
5355 5348 5342 5344 5341 5351 5375 5384 5383 5381 5386 5393 5395 5401 5407 5413 5419 5425 5432 5436 5442 5451 5462 5474 5486 5499 5513 5527 5540 5554 5565 5574 5584 5592 5598 5603 5606 5607 5607 5608 5608 5607 5607 5605
5350 5346 5341 5341 5342 5352 5377 5384 5384 5379 5376 5390 5391 5394 5400 5404 5406 5418 5428 5433 5441 5449 5459 5470 5483 5496 5509 5521 5534 5548 5559 5568 5578 5586 5592 5597 5599 5601 5602 5603 5602 5601 5600 5598
5338 5334 5334 5336 5339 5354 5374 5378 5378 5367 5371 5386 5388 5389 5391 5393 5399 5411 5420 5427 5436 5444 5454 5466 5478 5491 5503 5516 5528 5541 5553 5563 5572 5579 5584 5589 5592 5594 5595 5595 5594 5593 5591 5589
5335 5327 5325 5328 5331 5352 5373 5370 5367 5368 5376 5380 5382 5385 5387 5392 5400 5407 5415 5423 5431 5440 5450 5461 5472 5485 5498 5510 5522 5534 5545 5556 5564 5571 5576 5580 5583 5585 5586 5585 5584 5583 5582 5580
5336 5339 5334 5336 5352 5363 5365 5367 5369 5369 5370 5374 5376 5380 5383 5389 5395 5403 5410 5418 5426 5434 5445 5456 5467 5480 5491 5502 5514 5526 5536 5546 5555 5561 5566 5570 5573 5575 5576 5576 5575 5574 5574 5573
5337 5341 5335 5336 5349 5356 5359 5360 5363 5365 5366 5370 5373 5376 5379 5384 5391 5397 5404 5413 5421 5430 5440 5451 5462 5474 5485 5495 5506 5517 5528 5538 5547 5552 5556 5560 5564 5565 5566 5567 5568 5568 5568 5567
5339 5335 5331 5334 5345 5348 5355 5357 5359 5361 5363 5365 5369 5373 5376 5380 5387 5393 5400 5409 5417 5425 5436 5446 5456 5467 5478 5489 5500 5510 5520 5530 5538 5544 5548 5551 5554 5556 5556 5557 5558 5561 5562 5565
5337 5334 5332 5342 5348 5344 5350 5355 5355 5356 5359 5362 5365 5369 5374 5378 5383 5390 5397 5406 5414 5423 5432 5441 5452 5462 5472 5483 5494 5504 5514 5523 5531 5536 5539 5543 5545 5547 5547 5547 5545 5545 5550 5550